Flag for Cote d'Ivoire (Ivory Coast) Weather past 2 weeks in Abidjan, Cote d'Ivoire (Ivory Coast)

Now
75 °F

Passing clouds.


Feels Like: 73 °F
Forecast: 74 / 82 °F
Wind: 7 mph from West

Location: Abidjan Airport

Current Time: Sep 16, 2014 at 5:13:29 AM

Latest Report: Sep 16, 2014 at 4:30 AM


Visibility: 4 mi

Pressure: 29.89 "Hg

Humidity: 100%

Dew point: 75 °F

Location of AbidjanLocation

Historic Weather in Abidjan — Graph

°F

Abidjan temperature yesterday

Maximum temperature yesterday: 82 °F (at 1:00 PM)
Minimum temperature yesterday: 75 °F (at 12:00 AM)
Average temperature yesterday: 77 °F

Past Weeks' High & Low Weather Summary

 TemperatureHumidityPressure
High82 °F (Sep 1, 1:00 PM)100% (Sep 1, 7:00 AM)30.01 "Hg (Sep 1, 7:00 AM)
Low72 °F (Sep 12, 10:30 PM)70% (Sep 3, 11:30 AM)29.80 "Hg (Sep 12, 5:00 PM)
Average77 °F90%29.91 "Hg
* Reported Sep 1 4:00 AM — Sep 16 4:00 AM, Abidjan, Weather by CustomWeather, © 2014

Note: Actual official high and low records may vary slightly from our data, if they occured in-between our weather recording intervals... More about our weather records

Advertising

Abidjan weather history for previous 24 hours

 ConditionsComfort  
Time TempWeatherWind HumidityBarometerVisibility
4:00 AM
Sep 16
75 °FPassing clouds.6 mph100%29.89 "Hg4 mi
3:30 AM75 °FPassing clouds.7 mph100%29.86 "Hg4 mi
3:00 AM75 °FPassing clouds.7 mph100%29.86 "Hg4 mi
2:30 AM75 °FFog.7 mph100%29.86 "Hg2 mi
2:00 AM75 °FPassing clouds.7 mph100%29.86 "Hg5 mi
1:00 AM75 °FPassing clouds.6 mph94%29.89 "Hg4 mi
12:30 AM75 °FPassing clouds.6 mph94%29.89 "Hg4 mi
12:00 AM75 °FPassing clouds.6 mph94%29.92 "Hg4 mi
11:30 PM
Sep 15
75 °FPassing clouds.5 mph100%29.92 "Hg4 mi
11:00 PM75 °FPassing clouds.3 mph94%29.92 "Hg4 mi
10:30 PM75 °FPassing clouds.3 mph100%29.92 "Hg4 mi
10:00 PM75 °FPassing clouds.7 mph100%29.92 "Hg4 mi
9:30 PM75 °FPassing clouds.7 mph100%29.92 "Hg4 mi
9:00 PM77 °FPassing clouds.7 mph94%29.92 "Hg4 mi
8:30 PM77 °FPartly cloudy.7 mph94%29.89 "Hg4 mi
8:00 PM77 °FPartly cloudy.6 mph89%29.92 "Hg4 mi
7:30 PM77 °FPartly cloudy.7 mph94%29.89 "Hg4 mi
7:00 PM77 °FPartly cloudy.7 mph94%29.89 "Hg4 mi
6:30 PM77 °FPartly cloudy.6 mph94%29.89 "Hg4 mi
6:00 PM77 °FBroken clouds.6 mph94%29.89 "Hg4 mi
5:30 PM79 °FBroken clouds.7 mph89%29.89 "Hg4 mi
5:00 PM79 °FBroken clouds.9 mph84%29.89 "Hg4 mi
4:30 PM79 °FBroken clouds.9 mph89%29.89 "Hg4 mi
4:00 PM79 °FBroken clouds.10 mph89%29.86 "Hg4 mi
3:30 PM79 °FBroken clouds.12 mph84%29.89 "Hg4 mi
3:00 PM79 °FBroken clouds.12 mph84%29.89 "Hg4 mi
2:00 PM81 °FBroken clouds.13 mph79%29.92 "Hg4 mi
1:30 PM82 °FBroken clouds.13 mph74%29.92 "Hg6 mi
1:00 PM82 °FBroken clouds.13 mph74%29.92 "Hg6 mi
12:30 PM81 °FBroken clouds.12 mph79%29.92 "Hg6 mi
12:00 PM81 °FBroken clouds.9 mph84%29.95 "Hg6 mi
11:30 AM79 °FBroken clouds.7 mph89%29.95 "Hg6 mi
11:00 AM81 °FBroken clouds.9 mph84%29.95 "Hg6 mi
10:30 AM81 °FBroken clouds.8 mph84%29.95 "Hg4 mi
10:00 AM79 °FBroken clouds.8 mph89%29.95 "Hg4 mi
9:30 AM79 °FBroken clouds.6 mph89%29.95 "Hg4 mi
9:00 AM77 °FBroken clouds.6 mph94%29.95 "Hg4 mi
8:30 AM77 °FBroken clouds.6 mph94%29.95 "Hg4 mi
8:00 AM77 °FBroken clouds.8 mph89%29.92 "Hg4 mi
7:30 AM77 °FBroken clouds.7 mph94%29.92 "Hg4 mi
7:00 AM75 °FBroken clouds.5 mph100%29.92 "Hg4 mi
6:30 AM75 °FScattered clouds.5 mph100%29.89 "Hg4 mi
6:00 AM75 °FPassing clouds.5 mph100%29.89 "Hg4 mi
5:30 AM75 °FPassing clouds.5 mph94%29.89 "Hg4 mi
5:00 AM75 °FFog.3 mph100%29.86 "Hg2 mi
Weather by CustomWeather, © 2014

See weather overviewHow to use our weather pages